User: anonymous   Login
Location: Unspecified
(0.0000°N, 0.0000°E)
Time: 20:26:07
(UTC+00:00)
Language:

OPTUS D2 - Orbit

View from above orbital plane
View from above orbital plane
View from above satellite
View from above satellite

Ground track
Ground track

The orbit data is extracted from the following two-line orbital elements,

1 32252U 07044A   16179.63221028 -.00000190  00000-0  00000+0 0  9997
2 32252   0.0187  14.1847 0003019  82.3913 199.1857  1.00271783 31920
Epoch (UTC): 27 June 2016 15:10:22
Eccentricity: 0.0003019
inclination: 0.0187°
perigee height: 35773 km
apogee height: 35799 km
right ascension of ascending node: 14.1847°
argument of perigee: 82.3913°
revolutions per day: 1.00271783
mean anomaly at epoch: 199.1857°
orbit number at epoch: 3192

The dashed part of the orbit path shows where the satellite is in the earth's shadow,  

DLR